Zurück zum Katalog

BREEZE-M R/B

AktivMEO
NORAD 40278·ROCKET BODY·🇷🇺 Russia

Gestartet Oct 21, 2014 von Baikonur Cosmodrome

Loading…

Nächste Überflüge (nächste 24 Stunden)

TLE

AktuellSource: Space-Track

Epoche: Sep 14, 2026, 11:03 UTC

1 40278U 14064B   26257.46049537 -.00000138  00000-0  00000-0 0  9999
2 40278   9.5287  61.6886 0581720 220.0350 135.6591  0.95221888 41372

Verfolge BREEZE-M R/B in Echtzeit mit AllMySat

Download on the App Store